[[{"header":{"parameterUnit":"m.s-1","parameterCategory":1,"la1":30.2991,"la2":30.254,"lo1":-89.0895,"lo2":-89.0444,"dy":0.0017,"dx":0.0017,"nx":28,"ny":28,"refTime":"2024-02-08T09:00:00:Z","depth":0,"parameterNumber":2,"parameterNumberName":"U-component_of_WINDS"},"data":[0,0,0,0,0,0,0,0,0,0,0,0,0,0,0,0,0,0,0,0,0,0,0,0,0,0,0,0,0,0,0,0,0,0,0,0,0,0,0,0,0,0,0,0,0,0,0,0,0,0,0,0,0,0,0,0,0,0,-1.9593,-1.9593,0,-1.9668,-1.9669,-1.967,-1.9697,-1.9696,-1.9696,-1.9696,-1.9774,-1.9776,-1.9778,0,0,0,0,0,0,0,0,0,0,0,0,0,-1.947,-1.9472,-1.9592,-1.9593,-1.9594,-1.9668,-1.9669,-1.967,-1.9697,-1.9696,-1.9696,-1.9696,-1.9773,-1.9776,-1.9779,0,0,0,0,0,0,0,0,0,0,0,0,0,-1.9532,-1.9473,-1.9592,-1.9616,-1.9619,-1.9668,-1.9669,-1.967,-1.9697,-1.9696,-1.9696,-1.9696,-1.9772,-1.9775,-1.9779,-1.9809,0,0,-1.979,-1.9791,0,0,0,0,0,0,0,0,-1.9529,-1.9537,-1.9612,-1.9615,-1.9618,-1.9673,-1.9655,-1.9717,-1.9697,-1.9667,-1.9696,-1.9695,-1.974,-1.9747,-1.9762,-1.9813,-1.9816,-1.979,-1.9792,-1.9794,-1.9795,0,0,0,0,0,0,0,-1.9525,-1.9534,-1.9622,-1.9613,-1.9617,-1.9623,-1.9632,-1.9667,-1.9705,-1.967,-1.9672,-1.9681,-1.9742,-1.9758,-1.9764,-1.9817,-1.979,-1.9793,-1.9795,-1.9797,-1.9896,-1.9896,0,0,0,0,0,0,-1.9516,-1.953,-1.962,-1.9625,-1.9572,-1.9626,-1.9635,-1.9656,-1.9705,-1.9712,-1.9681,-1.9682,-1.9752,-1.976,-1.9767,-1.9804,-1.9794,-1.9797,-1.9799,-1.9895,-1.9896,-1.9896,0,0,0,0,0,0,-1.9513,-1.9524,-1.9617,-1.9578,-1.959,-1.9628,-1.9651,-1.9657,-1.9673,-1.9713,-1.972,-1.969,-1.9752,-1.9762,-1.9798,-1.9807,-1.9798,-1.9802,-1.9895,-1.9895,-1.9896,-1.988,0,0,0,0,0,0,-1.951,-1.9523,-1.9535,-1.9578,-1.9592,-1.9647,-1.9652,-1.9659,-1.9679,-1.9681,-1.9724,-1.9731,-1.9753,-1.9793,-1.9801,-1.9812,-1.9804,-1.9894,-1.9895,-1.9896,-1.988,-1.988,-1.9881,0,0,0,0,0,-1.9505,-1.9528,-1.9535,-1.9546,-1.9608,-1.9648,-1.9656,-1.9681,-1.968,-1.9692,-1.9718,-1.9729,-1.9805,-1.9796,-1.9806,-1.9818,-1.9893,-1.9895,-1.9896,-1.988,-1.988,-1.9881,0,0,0,0,0,0,-1.9485,-1.9534,-1.9543,-1.958,-1.9609,-1.9652,-1.9668,-1.968,-1.9711,-1.9711,-1.9741,-1.975,-1.9784,-1.9805,-1.9794,-1.9849,-1.985,-1.9853,-1.9834,-1.9835,-1.9835,-1.9829,-1.9807,0,0,0,0,0,-1.9485,-1.9513,-1.9554,-1.9583,-1.9597,-1.963,-1.9648,-1.9665,-1.9697,-1.9709,-1.9737,-1.9768,-1.9798,-1.9818,-1.9849,-1.9883,-1.9893,-1.9896,-1.9897,-1.9897,-1.9899,-1.9918,-1.992,-1.99,-1.99,-1.99,0,0,-1.9485,-1.9515,-1.9531,-1.9579,-1.9604,-1.9632,-1.964,-1.967,-1.9691,-1.9714,-1.975,-1.9771,-1.9807,-1.9843,-1.986,-1.9861,-1.9907,-1.9898,-1.9898,-1.99,-1.992,-1.9921,-1.9923,-1.9901,-1.9901,-1.9901,0,0,-1.9498,-1.9524,-1.9551,-1.9575,-1.9612,-1.9634,-1.964,-1.9681,-1.9696,-1.9733,-1.975,-1.9775,-1.9828,-1.9852,-1.9872,-1.9894,-1.9905,-1.9903,-1.9904,-1.9923,-1.9924,-1.9926,-1.9933,-1.9935,-1.9905,-1.9905,-1.9905,0,-1.9494,-1.9537,-1.9563,-1.9591,-1.9612,-1.9633,-1.9659,-1.9682,-1.9727,-1.9741,-1.9742,-1.9807,-1.9833,-1.9874,-1.9879,-1.9894,-1.9902,-1.9898,-1.9922,-1.9924,-1.9925,-1.9933,-1.9935,-1.9905,-1.9905,-1.9905,-1.9905,0,-1.9528,-1.9558,-1.9575,-1.9617,-1.964,-1.9667,-1.9697,-1.9716,-1.9731,-1.9752,-1.9788,-1.982,-1.9857,-1.9868,-1.9882,-1.9911,-1.991,-1.9916,-1.9917,-1.9926,-1.9933,-1.9936,-1.9904,-1.9904,-1.9904,-1.9904,0,0,-1.9532,-1.9588,-1.9593,-1.9612,-1.9655,-1.9678,-1.9706,-1.9742,-1.9758,-1.9788,-1.9812,-1.9855,-1.9861,-1.9882,-1.99,-1.9916,-1.9931,-1.992,-1.9921,-1.992,-1.9963,-1.9958,-1.9961,-1.9939,-1.9939,-1.994,-1.996,0,-1.9551,-1.9601,-1.9625,-1.9665,-1.9692,-1.9713,-1.9737,-1.9765,-1.9786,-1.9812,-1.9835,-1.9865,-1.987,-1.9883,-1.99,-1.9925,-1.9939,-1.9924,-1.9961,-1.9962,-1.9951,-1.9965,-1.9959,-1.9977,-1.9963,-1.9963,-1.9964,0,-1.958,-1.9609,-1.9652,-1.969,-1.9702,-1.9724,-1.9758,-1.9782,-1.9815,-1.9829,-1.9853,-1.9869,-1.9899,-1.9898,-1.994,-1.9929,-1.9945,-1.9959,-1.9961,-1.9965,-1.9963,-1.9968,-1.9983,-1.9985,-1.9968,-1.9968,-1.9968,0,-1.9576,-1.9627,-1.9659,-1.9675,-1.9721,-1.9735,-1.9755,-1.9787,-1.9806,-1.9836,-1.9849,-1.9882,-1.99,-1.9925,-1.995,-1.9947,-1.9989,-1.999,-2.0001,-2.0,-2.0008,-2.0007,-2.0025,-2.002,-2.002,-2.002,-2.002,0,-1.9595,-1.962,-1.9658,-1.9678,-1.9706,-1.9733,-1.976,-1.9782,-1.981,-1.9834,-1.9854,-1.9876,-1.9908,-1.9933,-1.9953,-1.9984,-1.9992,-2.0004,-2.0009,-2.0002,-2.0,-2.0013,-2.0012,-2.002,-2.002,-2.002,-2.002,0,-1.9596,-1.9623,-1.9659,-1.9699,-1.9709,-1.9728,-1.9763,-1.9782,-1.9804,-1.9833,-1.9842,-1.9876,-1.9907,-1.9935,-1.9976,-1.999,-2.0021,-2.0027,-2.001,-2.0012,-2.0021,-2.002,-2.0047,-2.0052,-2.0044,-2.0044,-2.0044,0,-1.9606,-1.9625,-1.9667,-1.9684,-1.9703,-1.9731,-1.9751,-1.9778,-1.9798,-1.9836,-1.985,-1.9883,-1.9911,-1.996,-1.9988,-2.002,-2.0027,-2.0035,-2.0032,-2.0024,-2.0027,-2.0025,-2.0027,-2.0034,-2.0034,-2.0034,-2.0034,0,-1.9619,-1.9631,-1.9659,-1.9691,-1.9714,-1.9741,-1.9768,-1.9781,-1.9813,-1.9834,-1.9867,-1.9888,-1.993,-1.9962,-1.9997,-2.0018,-2.0031,-2.0035,-2.0039,-2.0032,-2.0021,-2.0026,-2.0009,-2.0034,-2.0034,-2.0034,-2.0034,-2.0034,-1.9625,-1.9643,-1.9674,-1.9704,-1.9728,-1.9753,-1.9773,-1.9796,-1.9823,-1.986,-1.9874,-1.9907,-1.9938,-1.9986,-2.0007,-2.0033,-2.0035,-2.0041,-2.0042,-2.0043,-2.0042,-2.0017,-2.0039,-2.0039,-2.0039,-2.0039,-2.0039,0,-1.9639,-1.966,-1.9687,-1.9724,-1.9748,-1.9758,-1.9789,-1.9808,-1.9836,-1.9864,-1.9891,-1.9927,-1.9959,-1.9989,-2.0022,-2.0037,-2.0044,-2.0044,-2.0043,-2.0048,-2.0038,-2.0031,-2.0038,-2.0038,-2.0038,-2.0038,-2.0038,-2.0038,-1.9649,-1.9679,-1.9695,-1.9737,-1.9759,-1.979,-1.9807,-1.983,-1.9852,-1.9892,-1.9918,-1.9937,-1.9967,-2.0001,-2.003,-2.0039,-2.005,-2.0048,-2.0058,-2.0049,-2.0048,-2.0048,-2.0042,-2.0051,-2.0051,-2.0065,-2.0066,-2.0066]},{"header":{"parameterUnit":"m.s-1","parameterCategory":1,"la1":30.2991,"la2":30.254,"lo1":-89.0895,"lo2":-89.0444,"dy":0.0017,"dx":0.0017,"nx":28,"ny":28,"refTime":"2024-02-08T09:00:00:Z","depth":0,"parameterNumber":3,"parameterNumberName":"V-component_of_WINDS"},"data":[0,0,0,0,0,0,0,0,0,0,0,0,0,0,0,0,0,0,0,0,0,0,0,0,0,0,0,0,0,0,0,0,0,0,0,0,0,0,0,0,0,0,0,0,0,0,0,0,0,0,0,0,0,0,0,0,0,0,2.0467,2.0468,0,2.065,2.0652,2.0654,2.0718,2.0717,2.0716,2.0716,2.091,2.0916,2.0922,0,0,0,0,0,0,0,0,0,0,0,0,0,2.0179,2.0184,2.0466,2.0469,2.0471,2.0649,2.0652,2.0655,2.0718,2.0717,2.0716,2.0715,2.0908,2.0915,2.0922,0,0,0,0,0,0,0,0,0,0,0,0,0,2.0327,2.0185,2.0466,2.0524,2.0531,2.0649,2.0652,2.0655,2.0718,2.0717,2.0716,2.0715,2.0906,2.0914,2.0923,2.0999,0,0,2.095,2.0954,0,0,0,0,0,0,0,0,2.0319,2.0338,2.0513,2.052,2.0528,2.066,2.0622,2.0771,2.0718,2.0647,2.0716,2.0714,2.0828,2.0843,2.088,2.1008,2.1016,2.0951,2.0956,2.096,2.0962,0,0,0,0,0,0,0,2.0308,2.033,2.0539,2.0516,2.0525,2.0543,2.0563,2.0651,2.0742,2.0653,2.0658,2.0679,2.0832,2.0872,2.0885,2.1019,2.095,2.0958,2.0964,2.0967,2.1222,2.1223,0,0,0,0,0,0,2.0287,2.0321,2.0533,2.0545,2.0418,2.0549,2.0572,2.0619,2.0741,2.0758,2.068,2.0681,2.0857,2.0875,2.0892,2.0992,2.096,2.0968,2.0973,2.122,2.1222,2.1224,0,0,0,0,0,0,2.0281,2.0306,2.0526,2.0434,2.0464,2.0555,2.0608,2.0623,2.0662,2.0761,2.0778,2.0703,2.0857,2.088,2.0972,2.0999,2.0972,2.098,2.1219,2.1221,2.1223,2.1189,0,0,0,0,0,0,2.0272,2.0303,2.0331,2.0434,2.0468,2.06,2.0609,2.0627,2.0677,2.068,2.0787,2.0804,2.0858,2.0959,2.0981,2.1011,2.0987,2.1217,2.122,2.1222,2.1188,2.119,2.1191,0,0,0,0,0,2.0262,2.0315,2.0332,2.0357,2.0505,2.0602,2.0621,2.0681,2.0678,2.0709,2.0772,2.08,2.0992,2.0968,2.0993,2.1026,2.1215,2.1219,2.1222,2.1187,2.1189,2.1191,0,0,0,0,0,0,2.0214,2.0329,2.035,2.0437,2.0509,2.0612,2.0652,2.0681,2.0756,2.0757,2.083,2.0853,2.094,2.0992,2.0963,2.1107,2.1106,2.1114,2.107,2.1073,2.1074,2.1061,2.0994,0,0,0,0,0,2.0213,2.028,2.0378,2.0446,2.048,2.056,2.0604,2.0644,2.0722,2.0753,2.0824,2.09,2.0979,2.1028,2.1105,2.1195,2.1221,2.1231,2.1232,2.1233,2.124,2.1294,2.1301,2.1235,2.1235,2.1235,0,0,2.0213,2.0284,2.0322,2.0438,2.0498,2.0568,2.0585,2.0658,2.0712,2.0765,2.0857,2.0911,2.1002,2.1094,2.1138,2.114,2.1264,2.1237,2.1237,2.1244,2.1299,2.1305,2.131,2.1237,2.1237,2.1237,0,0,2.0249,2.0308,2.0373,2.0432,2.0523,2.0575,2.059,2.069,2.0727,2.082,2.0862,2.0928,2.106,2.1123,2.1173,2.1234,2.1264,2.1257,2.1266,2.1318,2.1323,2.1328,2.1352,2.136,2.1264,2.1263,2.1263,0,2.0239,2.0343,2.0402,2.0474,2.0525,2.0574,2.0641,2.0697,2.0809,2.0844,2.0844,2.1012,2.1076,2.1185,2.12,2.1237,2.126,2.1246,2.1317,2.1323,2.1328,2.1352,2.1361,2.1262,2.1262,2.1263,2.1263,0,2.0327,2.0399,2.0441,2.0545,2.0601,2.067,2.0742,2.0791,2.0826,2.0879,2.0974,2.1053,2.1148,2.1176,2.1212,2.1291,2.129,2.1302,2.1302,2.1332,2.1356,2.1366,2.126,2.1261,2.1261,2.1262,0,0,2.034,2.0475,2.049,2.0539,2.0642,2.0701,2.0773,2.0864,2.0906,2.0982,2.1046,2.1157,2.1169,2.1226,2.1269,2.1314,2.136,2.1321,2.1325,2.1328,2.1456,2.1448,2.1457,2.138,2.1382,2.1383,2.145,0,2.0391,2.0519,2.0575,2.068,2.0749,2.0797,2.086,2.0932,2.0984,2.1053,2.1111,2.1189,2.1198,2.1233,2.128,2.1345,2.1388,2.134,2.1444,2.1447,2.1422,2.147,2.1461,2.152,2.1459,2.1461,2.1462,0,2.0468,2.0542,2.0653,2.075,2.0781,2.0836,2.0925,2.0989,2.1073,2.1107,2.117,2.1211,2.1292,2.1285,2.1399,2.1365,2.1411,2.1449,2.1453,2.1467,2.1458,2.1488,2.154,2.1549,2.1477,2.1476,2.1475,0,2.0469,2.0597,2.068,2.072,2.0834,2.0873,2.0923,2.1005,2.1056,2.1135,2.1169,2.1256,2.1305,2.1373,2.1437,2.1425,2.1546,2.1544,2.158,2.1579,2.1605,2.1603,2.1668,2.163,2.163,2.163,2.163,0,2.0523,2.0589,2.0682,2.0734,2.0811,2.0875,2.095,2.1004,2.1077,2.1142,2.1189,2.1249,2.1329,2.1401,2.1452,2.1541,2.1561,2.1594,2.1608,2.1592,2.1588,2.1624,2.1623,2.1632,2.1632,2.1631,2.1631,0,2.0537,2.0602,2.0696,2.0796,2.0823,2.0875,2.0963,2.1016,2.107,2.1152,2.1175,2.126,2.1347,2.1417,2.1531,2.1566,2.1659,2.1673,2.163,2.1638,2.1671,2.1668,2.1764,2.1781,2.1729,2.1729,2.1729,0,2.0568,2.062,2.0725,2.0771,2.082,2.0893,2.0945,2.1011,2.1065,2.1164,2.1207,2.1296,2.1371,2.1509,2.1583,2.1671,2.1689,2.1716,2.1703,2.1686,2.1693,2.169,2.1697,2.1718,2.1719,2.1719,2.1719,0,2.0617,2.0646,2.0719,2.0803,2.0864,2.0934,2.1005,2.1041,2.112,2.1178,2.1266,2.1325,2.1441,2.153,2.1626,2.1681,2.1715,2.1722,2.1736,2.1721,2.1696,2.1713,2.1637,2.172,2.172,2.172,2.172,2.172,2.0643,2.0692,2.0774,2.0854,2.0914,2.098,2.1035,2.1095,2.1169,2.1267,2.1302,2.1394,2.1479,2.1611,2.1666,2.174,2.1744,2.1762,2.1768,2.1772,2.1772,2.1681,2.1758,2.1758,2.1758,2.1758,2.1758,0,2.0697,2.0751,2.0824,2.0921,2.0985,2.1007,2.1088,2.1141,2.122,2.1295,2.1367,2.147,2.1558,2.1638,2.173,2.1775,2.1793,2.1797,2.1796,2.1809,2.1762,2.1742,2.1781,2.1781,2.1781,2.1781,2.1781,2.1781,2.0732,2.0817,2.0856,2.0973,2.1029,2.1116,2.1161,2.1223,2.1283,2.1395,2.1467,2.1518,2.1597,2.1695,2.1777,2.1799,2.1832,2.1833,2.1859,2.1815,2.1811,2.1808,2.179,2.1839,2.1839,2.19,2.19,2.1901]}]]